Snowfall_Accumulation
nan nan nan nan nan nan nan nan nan nan nan nan nan nan nan nan nan 0.0 0.0 0.0 0.0 nan nan 0.0 0.0 0.0 0.0 0.0 0.0 0.0 0.0 0.0 0.0 0.0 0.0 0.0 0.0 0.0 0.0 0.0 0.0 0.0 0.0 0.0 0.0
nan nan nan nan nan nan nan nan nan nan nan nan nan nan nan nan 0.0 0.0 nan nan nan nan 0.0 0.0 0.0 0.0 0.0 0.0 0.0 0.0 0.1 0.0 0.1 0.0 0.0 0.0 0.0 0.0 0.0 0.0 0.0 0.0 0.0 0.0 0.0
nan nan nan nan nan nan nan nan nan nan nan nan nan nan nan 0.0 0.0 0.0 nan nan nan 0.0 0.0 0.0 0.0 0.0 0.0 0.0 0.0 0.0 0.3 0.1 0.0 0.2 0.0 0.0 0.0 0.0 0.0 0.0 0.0 0.0 0.0 0.0 0.0
nan nan nan nan nan nan nan nan nan nan nan nan nan nan nan 0.0 0.0 0.0 nan nan nan 0.0 0.0 0.0 0.0 0.0 0.0 0.0 0.0 1.0 0.0 0.1 0.1 0.0 0.1 0.2 0.0 0.0 0.0 0.0 0.0 0.0 0.0 0.0 0.0
nan nan nan nan nan nan nan nan nan nan nan nan nan nan 0.0 0.0 0.0 0.0 nan nan 0.0 0.0 0.0 0.0 0.0 0.0 0.0 0.1 0.1 0.3 0.0 0.0 0.0 0.0 0.0 0.0 0.1 0.0 0.0 0.0 0.0 0.0 0.0 0.0 0.0
nan nan nan nan nan nan nan nan nan nan nan nan nan nan 0.0 0.0 0.0 0.0 0.0 0.0 0.0 0.0 0.0 0.0 0.0 0.0 0.1 0.0 0.0 0.0 0.0 0.0 0.0 0.0 0.0 0.0 0.0 0.0 0.0 0.0 0.0 0.0 0.0 0.0 0.0
nan nan nan nan nan nan nan nan nan nan nan nan nan 0.0 0.0 0.0 0.0 0.0 0.0 0.0 0.0 0.0 0.0 0.0 0.0 0.0 0.0 0.0 0.0 0.0 0.1 0.0 0.0 0.0 0.0 0.0 0.0 0.0 0.0 0.0 0.0 0.0 0.0 0.0 0.0
nan nan nan nan nan nan nan nan nan nan nan nan nan 0.0 0.0 0.0 0.0 0.0 0.0 0.0 0.0 0.0 0.0 0.0 0.0 0.0 0.0 0.0 0.0 0.1 0.1 1.0 0.0 0.0 0.0 0.0 1.0 0.0 0.0 0.0 0.0 0.0 0.0 0.0 0.0
nan nan nan nan nan nan nan nan nan nan nan nan 0.0 0.0 0.0 nan 0.0 0.0 0.0 0.0 0.0 0.0 0.0 0.0 0.0 0.0 0.0 0.7 2.0 0.9 1.1 0.4 0.0 0.0 0.0 0.1 0.5 0.0 0.0 0.0 0.0 0.0 0.0 0.0 0.0
nan nan nan nan nan nan nan nan nan nan 0.0 0.0 0.0 0.0 0.0 0.0 0.0 0.0 0.0 0.0 0.0 0.0 0.0 0.0 0.0 0.2 0.1 2.9 9.3 4.1 3.5 0.5 0.2 0.0 0.0 0.1 0.1 0.0 0.0 0.0 0.0 0.0 0.0 0.0 0.0
nan nan nan nan nan nan 0.0 0.0 0.0 0.0 0.0 0.0 0.0 0.0 0.0 0.0 0.0 0.0 0.0 0.0 0.0 0.0 0.1 0.0 2.7 6.1 0.3 1.1 2.9 1.0 5.3 2.6 0.2 0.0 0.6 0.1 0.1 0.6 0.0 0.0 0.0 0.0 0.0 0.0 0.0
nan nan nan nan nan nan 0.0 0.0 0.0 0.0 0.0 0.0 0.0 0.0 0.0 0.0 0.0 0.0 0.0 0.0 0.0 0.0 0.0 0.7 4.7 0.5 0.3 0.0 0.2 0.7 2.6 2.7 0.1 0.1 1.2 1.0 0.2 1.0 0.3 0.2 0.2 0.1 0.0 0.1 0.0
nan nan nan nan nan 0.0 0.0 0.0 0.0 0.0 0.0 0.0 0.0 0.0 0.0 0.0 0.0 0.0 0.0 0.0 0.0 0.0 0.0 0.6 0.3 0.0 0.4 0.2 2.7 1.6 2.7 1.0 0.5 0.6 0.5 0.7 1.5 0.3 0.6 0.5 0.0 0.3 0.5 0.3 0.1
nan nan nan nan nan 0.0 0.0 0.0 0.0 0.0 0.5 0.0 0.0 0.0 0.0 0.0 0.0 0.0 0.0 0.0 0.0 0.1 0.0 0.3 0.1 0.2 2.8 3.7 0.7 3.8 0.0 0.1 0.4 4.3 14.8 1.1 6.3 0.1 0.9 0.9 0.3 0.6 0.7 0.9 0.5
nan nan nan nan 0.0 0.0 0.0 0.0 0.0 0.0 2.1 0.0 0.0 0.0 0.0 0.0 0.0 0.0 0.0 0.0 0.7 0.2 1.5 2.2 1.0 1.4 1.7 1.8 1.7 4.4 0.0 0.1 0.2 4.6 5.4 5.2 5.5 0.8 0.8 1.2 0.8 0.4 1.2 0.7 0.7
nan nan nan 0.0 0.0 0.0 0.0 0.0 0.0 0.2 7.0 0.0 0.0 0.0 0.0 0.0 0.0 0.0 0.0 0.0 0.0 0.2 0.2 2.4 0.5 0.9 5.6 0.4 1.8 2.5 1.2 0.5 1.2 4.8 23.2 3.6 5.2 7.9 2.8 4.3 1.7 0.7 0.2 0.9 0.5
nan nan nan 0.0 0.0 0.0 0.0 0.0 0.1 1.2 0.0 0.0 0.0 0.0 0.0 0.0 0.0 0.0 0.2 0.5 2.9 3.3 2.7 0.9 1.6 0.5 0.3 0.4 1.3 3.4 5.7 14.4 20.2 25.5 14.4 1.7 2.2 6.7 4.3 2.3 1.8 1.5 0.4 0.2 0.3
nan nan nan 0.0 0.0 0.0 0.0 0.0 0.0 0.0 0.0 0.0 0.0 0.0 0.0 0.0 0.0 0.0 0.1 1.0 0.3 0.8 3.4 3.9 4.9 3.1 0.6 4.2 8.6 3.1 6.7 12.1 15.0 9.8 6.2 2.6 21.1 11.8 6.2 3.2 1.0 0.6 0.4 0.1 0.0
nan 0.0 0.0 0.0 0.0 0.0 0.0 0.1 1.8 0.3 0.0 0.1 0.0 0.0 0.0 0.0 0.0 0.0 0.3 0.6 1.0 1.4 9.4 8.5 4.1 0.6 0.4 1.0 0.8 3.5 8.9 5.5 8.9 2.1 3.6 9.1 6.0 4.6 1.2 1.4 0.6 0.5 0.2 0.6 0.1
0.0 0.0 0.0 0.0 0.0 0.0 0.0 nan 0.5 0.0 0.0 0.0 0.3 0.1 0.1 0.0 0.0 0.0 0.0 0.0 0.0 0.1 0.0 1.8 4.8 0.8 1.3 0.2 0.5 2.7 2.4 10.7 10.0 18.6 10.7 7.0 3.9 9.8 8.9 5.8 3.4 4.4 2.7 1.2 0.5
0.0 0.0 0.0 0.0 0.0 0.0 0.4 0.5 0.1 0.0 0.0 0.0 0.1 0.2 0.0 0.2 0.2 0.3 0.4 0.4 0.1 0.1 0.1 1.7 5.7 2.1 0.1 3.8 7.3 2.4 5.7 4.3 6.9 12.4 16.1 7.1 16.2 10.8 7.9 6.7 5.4 5.4 3.5 3.3 1.8
0.0 0.0 0.0 0.0 0.0 0.0 0.1 0.0 nan 0.0 0.0 0.0 0.0 0.1 0.3 0.5 0.6 0.6 0.3 0.4 0.0 0.0 1.1 0.3 3.3 3.8 5.4 2.5 1.3 2.9 7.3 5.0 13.1 8.4 4.0 7.6 12.7 6.2 6.0 6.0 5.0 4.4 4.5 2.9 2.3
0.0 0.0 0.0 0.0 0.0 0.0 0.0 0.0 0.0 0.0 0.0 0.0 0.1 0.1 0.1 0.8 3.2 1.6 0.4 0.3 0.0 0.1 2.0 1.8 3.0 1.9 2.0 1.2 0.4 3.4 4.8 5.3 6.8 6.3 8.1 8.8 14.1 3.9 3.4 2.7 4.4 6.1 4.8 4.8 4.1
0.0 0.1 0.0 0.0 0.0 0.1 0.1 0.0 0.0 0.0 0.1 0.1 0.2 0.1 0.2 0.2 0.1 2.7 0.3 0.1 0.0 0.0 nan nan 2.3 1.6 4.2 5.7 1.7 5.0 2.5 3.0 3.8 9.0 5.3 5.3 4.2 3.7 4.1 3.5 4.3 6.5 5.2 4.6 5.7
0.0 0.3 0.1 0.0 0.0 0.0 0.1 0.1 0.1 0.5 0.1 0.0 0.1 0.1 3.6 6.3 1.0 0.6 0.2 0.2 0.1 nan 0.1 0.8 2.7 0.0 0.0 0.3 0.3 0.5 2.4 2.6 5.5 4.2 5.1 3.9 2.6 2.8 3.1 3.7 3.9 4.7 3.2 3.8 4.5
0.2 0.9 0.8 0.5 0.1 0.1 0.1 0.8 0.1 0.2 0.5 0.7 1.5 0.1 2.2 6.9 3.6 8.5 6.1 2.0 2.1 1.3 0.3 0.4 2.3 0.3 0.3 0.0 0.0 0.6 0.1 0.2 0.9 1.1 2.0 1.5 2.9 3.0 3.1 2.9 3.4 3.2 2.9 3.4 4.0
0.0 0.0 0.8 nan 0.1 0.8 0.9 1.3 1.0 0.2 0.1 0.5 0.5 2.1 3.2 1.7 1.1 0.2 0.2 0.1 0.4 4.2 2.6 4.1 2.4 3.4 2.5 0.1 0.1 2.3 3.1 1.4 3.7 2.1 1.5 3.7 4.7 2.4 2.7 2.5 3.0 3.3 2.5 2.4 2.9
Water_Equivalent
nan nan nan nan nan nan nan nan nan nan nan nan nan nan nan nan nan 0.00 0.00 0.00 0.00 nan nan 0.00 0.00 0.00 0.00 0.00 0.00 0.00 0.00 0.01 0.00 0.00 0.00 0.00 0.00 0.00 0.00 0.00 0.00 0.00 0.00 0.00 0.00
nan nan nan nan nan nan nan nan nan nan nan nan nan nan nan nan 0.00 0.00 nan nan nan nan 0.00 0.00 0.00 0.00 0.00 0.00 0.00 0.00 0.01 0.01 0.02 0.00 0.00 0.00 0.00 0.00 0.00 0.00 0.00 0.00 0.00 0.00 0.00
nan nan nan nan nan nan nan nan nan nan nan nan nan nan nan 0.00 0.00 0.00 nan nan nan 0.00 0.00 0.00 0.00 0.00 0.00 0.00 0.00 0.00 0.07 0.02 0.00 0.04 0.01 0.00 0.00 0.00 0.00 0.00 0.00 0.00 0.00 0.00 0.00
nan nan nan nan nan nan nan nan nan nan nan nan nan nan nan 0.00 0.00 0.00 nan nan nan 0.00 0.00 0.00 0.00 0.00 0.00 0.00 0.00 0.19 0.00 0.01 0.01 0.00 0.02 0.03 0.00 0.00 0.00 0.00 0.00 0.00 0.00 0.00 0.00
nan nan nan nan nan nan nan nan nan nan nan nan nan nan 0.00 0.00 0.00 0.00 nan nan 0.00 0.00 0.00 0.00 0.00 0.00 0.00 0.02 0.03 0.05 0.00 0.00 0.00 0.00 0.00 0.00 0.02 0.00 0.00 0.00 0.00 0.00 0.00 0.00 0.00
nan nan nan nan nan nan nan nan nan nan nan nan nan nan 0.00 0.00 0.00 0.00 0.00 0.00 0.00 0.00 0.00 0.00 0.00 0.00 0.01 0.00 0.01 0.00 0.01 0.00 0.00 0.00 0.00 0.00 0.00 0.01 0.00 0.00 0.00 0.00 0.00 0.00 0.00
nan nan nan nan nan nan nan nan nan nan nan nan nan 0.00 0.00 0.00 0.00 0.00 0.00 0.00 0.00 0.00 0.00 0.00 0.00 0.00 0.00 0.00 0.00 0.00 0.01 0.00 0.00 0.00 0.00 0.00 0.00 0.00 0.00 0.00 0.00 0.00 0.00 0.00 0.00
nan nan nan nan nan nan nan nan nan nan nan nan nan 0.00 0.00 0.00 0.00 0.00 0.00 0.00 0.00 0.00 0.00 0.00 0.00 0.00 0.00 0.00 0.00 0.01 0.02 0.20 0.00 0.00 0.00 0.00 0.19 0.00 0.00 0.00 0.00 0.00 0.00 0.00 0.00
nan nan nan nan nan nan nan nan nan nan nan nan 0.00 0.00 0.00 nan 0.00 0.00 0.00 0.00 0.00 0.00 0.00 0.00 0.00 0.00 0.00 0.17 0.38 0.18 0.19 0.08 0.00 0.00 0.00 0.01 0.10 0.00 0.00 0.00 0.00 0.00 0.00 0.00 0.00
nan nan nan nan nan nan nan nan nan nan 0.00 0.00 0.00 0.00 0.00 0.00 0.00 0.00 0.00 0.00 0.00 0.00 0.00 0.00 0.00 0.04 0.01 0.52 1.24 0.70 0.58 0.08 0.03 0.00 0.00 0.02 0.02 0.00 0.00 0.00 0.00 0.00 0.00 0.00 0.00
nan nan nan nan nan nan 0.00 0.00 0.00 0.00 0.00 0.00 0.00 0.00 0.00 0.00 0.00 0.00 0.00 0.00 0.00 0.00 0.02 0.00 0.44 1.02 0.04 0.14 0.44 0.12 0.71 0.37 0.03 0.00 0.10 0.01 0.01 0.09 0.00 0.00 0.00 0.00 0.00 0.00 0.00
nan nan nan nan nan nan 0.00 0.00 0.00 0.00 0.00 0.00 0.00 0.00 0.00 0.00 0.00 0.00 0.00 0.00 0.00 0.00 0.00 0.15 0.97 0.09 0.05 0.01 0.03 0.13 0.47 0.45 0.03 0.02 0.21 0.12 0.02 0.14 0.04 0.02 0.04 0.02 0.00 0.01 0.00
nan nan nan nan nan 0.00 0.00 0.00 0.00 0.00 0.00 0.00 0.00 0.00 0.00 0.00 0.00 0.00 0.00 0.00 0.00 0.00 0.00 0.08 0.05 0.00 0.07 0.04 0.56 0.30 0.44 0.18 0.08 0.12 0.10 0.10 0.21 0.04 0.10 0.08 0.00 0.05 0.08 0.05 0.02
nan nan nan nan nan 0.00 0.00 0.00 0.00 0.00 0.09 0.00 0.00 0.00 0.00 0.00 0.00 0.00 0.00 0.00 0.00 0.02 0.00 0.05 0.01 0.04 0.69 0.76 0.11 0.58 0.00 0.01 0.07 0.67 1.77 0.17 0.73 0.02 0.11 0.11 0.05 0.12 0.11 0.15 0.08
nan nan nan nan 0.00 0.00 0.00 0.00 0.00 0.00 0.61 0.00 0.00 0.00 0.00 0.00 0.00 0.00 0.00 0.00 0.14 0.03 0.22 0.22 0.14 0.20 0.25 0.28 0.29 0.88 0.00 0.02 0.06 0.77 0.83 0.79 0.79 0.08 0.10 0.12 0.09 0.06 0.25 0.11 0.12
nan nan nan 0.00 0.00 0.00 0.00 0.00 0.00 0.06 2.41 0.00 0.00 0.00 0.00 0.00 0.00 0.00 0.00 0.00 0.00 0.04 0.03 0.34 0.11 0.15 0.67 0.06 0.32 0.41 0.26 0.12 0.22 0.82 2.74 0.45 0.75 0.98 0.34 0.45 0.25 0.12 0.03 0.16 0.09
nan nan nan 0.00 0.00 0.00 0.00 0.00 0.03 0.22 0.00 0.00 0.01 0.00 0.00 0.00 0.00 0.01 0.04 0.08 0.29 0.29 0.29 0.14 0.26 0.09 0.05 0.06 0.21 0.48 0.81 1.67 2.33 3.09 1.49 0.20 0.36 0.76 0.54 0.35 0.26 0.23 0.07 0.05 0.05
nan nan nan 0.00 0.00 0.00 0.00 0.00 0.01 0.00 0.00 0.00 0.00 0.00 0.00 0.00 0.00 0.00 0.02 0.15 0.05 0.11 0.35 0.41 0.62 0.38 0.11 0.60 0.86 0.33 0.81 1.34 1.34 1.02 0.78 0.41 2.37 1.77 0.93 0.58 0.22 0.12 0.08 0.02 0.01
nan 0.00 0.00 0.00 0.00 0.00 0.00 0.03 0.22 0.05 0.01 0.01 0.00 0.00 0.00 0.00 0.00 0.00 0.05 0.09 0.17 0.21 0.84 0.75 0.47 0.11 0.08 0.18 0.14 0.47 1.01 0.69 0.99 0.26 0.46 0.98 0.62 0.66 0.20 0.24 0.14 0.11 0.03 0.10 0.02
0.00 0.00 0.00 0.00 0.00 0.00 0.00 nan 0.09 0.00 0.00 0.00 0.04 0.02 0.01 0.00 0.00 0.00 0.00 0.00 0.00 0.01 0.00 0.23 0.42 0.12 0.21 0.04 0.11 0.36 0.35 1.17 1.24 1.61 0.84 0.67 0.34 1.32 1.11 0.79 0.58 0.73 0.45 0.23 0.09
0.00 0.00 0.00 0.00 0.00 0.00 0.07 0.08 0.01 0.00 0.00 0.01 0.02 0.03 0.01 0.03 0.02 0.04 0.05 0.07 0.02 0.01 0.02 0.27 0.67 0.21 0.02 0.37 0.68 0.30 0.68 0.52 0.79 1.32 1.44 0.60 1.65 1.57 1.02 0.92 0.75 0.83 0.62 0.56 0.36
0.00 0.00 0.00 0.00 0.00 0.00 0.02 0.01 nan 0.00 0.00 0.00 0.00 0.02 0.05 0.09 0.09 0.07 0.05 0.07 0.00 0.00 0.16 0.07 0.40 0.44 0.52 0.40 0.22 0.36 0.73 0.58 1.23 0.69 0.43 0.81 1.10 0.87 0.88 0.86 0.73 0.64 0.73 0.57 0.48
0.00 0.00 0.00 0.00 0.00 0.00 0.00 0.00 0.00 0.00 0.00 0.00 0.02 0.02 0.02 0.13 0.39 0.20 0.07 0.06 0.01 0.01 0.29 0.26 0.37 0.20 0.20 0.16 0.07 0.39 0.54 0.56 0.75 0.70 0.69 0.74 1.18 0.51 0.46 0.35 0.59 0.80 0.69 0.79 0.78
0.00 0.01 0.00 0.00 0.00 0.01 0.02 0.00 0.01 0.00 0.02 0.02 0.05 0.02 0.04 0.03 0.02 0.33 0.04 0.02 0.00 0.00 nan nan 0.31 0.18 0.38 0.44 0.18 0.44 0.24 0.31 0.38 0.87 0.43 0.43 0.34 0.38 0.47 0.41 0.56 0.88 0.71 0.68 0.87
0.00 0.06 0.03 0.01 0.00 0.00 0.02 0.02 0.02 0.08 0.01 0.00 0.02 0.01 0.42 0.68 0.13 0.08 0.03 0.03 0.01 nan 0.02 0.14 0.25 0.01 0.00 0.04 0.04 0.06 0.22 0.24 0.47 0.36 0.41 0.34 0.23 0.28 0.35 0.44 0.49 0.62 0.46 0.52 0.59
0.06 0.19 0.17 0.09 0.01 0.01 0.01 0.12 0.02 0.04 0.10 0.11 0.22 0.02 0.32 0.77 0.39 0.94 0.71 0.27 0.28 0.18 0.06 0.07 0.23 0.03 0.04 0.01 0.00 0.06 0.01 0.03 0.09 0.10 0.20 0.15 0.26 0.33 0.38 0.39 0.44 0.41 0.37 0.42 0.49
0.00 0.00 0.22 nan 0.03 0.13 0.15 0.20 0.16 0.03 0.01 0.10 0.09 0.34 0.39 0.21 0.17 0.04 0.03 0.02 0.07 0.44 0.28 0.45 0.25 0.31 0.19 0.01 0.01 0.19 0.23 0.12 0.33 0.18 0.13 0.31 0.44 0.27 0.32 0.31 0.37 0.42 0.32 0.30 0.36
SL_Ratio
nan nan nan nan nan nan nan nan nan nan nan nan nan nan nan nan nan nan nan nan nan nan nan nan nan nan nan nan nan nan 5.0 3.2 nan nan nan nan nan nan nan nan nan nan nan nan nan
nan nan nan nan nan nan nan nan nan nan nan nan nan nan nan nan nan nan nan nan nan nan nan nan nan nan nan nan nan nan 4.8 4.5 4.8 5.7 5.0 nan nan nan nan nan nan nan nan nan nan
nan nan nan nan nan nan nan nan nan nan nan nan nan nan nan nan nan nan nan nan nan nan nan nan nan nan nan nan nan nan 4.8 4.5 nan 5.3 5.5 5.0 nan nan nan nan nan nan nan nan nan
nan nan nan nan nan nan nan nan nan nan nan nan nan nan nan nan nan nan nan nan nan nan nan nan nan nan nan nan nan 5.5 nan 5.0 5.3 nan 5.4 5.6 nan 6.0 nan nan nan nan nan nan nan
nan nan nan nan nan nan nan nan nan nan nan nan nan nan nan nan nan nan nan nan nan nan nan nan nan nan 5.7 4.8 4.3 5.6 nan nan nan nan nan nan 5.7 7.5 nan nan nan nan nan nan nan
nan nan nan nan nan nan nan nan nan nan nan nan nan nan nan nan nan nan nan nan nan nan nan nan nan nan 3.6 4.2 5.0 5.0 5.0 5.0 5.0 nan nan 5.0 nan 5.5 nan nan nan nan nan nan nan
nan nan nan nan nan nan nan nan nan nan nan nan nan nan nan nan nan nan nan nan nan nan nan nan nan nan nan 5.0 nan nan 5.3 nan nan nan nan nan nan 5.0 nan nan nan nan nan nan nan
nan nan nan nan nan nan nan nan nan nan nan nan nan nan nan nan nan nan nan nan nan nan nan nan nan nan nan nan 4.0 5.5 5.5 5.3 nan nan nan 6.4 5.1 nan nan nan nan nan nan nan nan
nan nan nan nan nan nan nan nan nan nan nan nan nan nan 4.2 nan nan nan nan nan nan nan nan nan nan nan nan 4.1 5.3 5.0 5.7 4.7 5.0 nan nan 5.0 4.6 nan nan nan nan nan nan nan nan
nan nan nan nan nan nan nan nan nan nan nan nan nan nan nan nan nan nan nan nan nan nan nan nan nan 4.9 6.7 5.5 7.5 5.9 6.1 6.5 7.4 nan 5.0 7.0 6.5 nan nan nan nan nan nan nan nan
nan nan nan nan nan nan nan nan nan nan nan nan nan nan nan nan nan nan nan nan nan nan 4.0 nan 6.1 6.0 7.9 7.7 6.7 8.1 7.4 6.9 5.2 nan 5.8 8.0 7.5 6.5 6.7 nan 10.0 nan nan nan nan
nan nan nan nan nan nan nan nan nan nan nan nan nan nan nan nan nan nan nan nan nan nan nan 4.6 4.8 5.7 5.2 4.6 4.9 5.2 5.6 6.0 4.8 4.5 5.8 7.9 8.2 7.4 7.0 6.9 6.1 5.9 5.0 6.1 nan
nan nan nan nan nan nan nan nan nan nan nan nan nan nan nan nan nan nan nan nan nan 6.0 5.0 7.2 5.1 nan 5.4 5.5 4.9 5.4 6.2 5.5 5.9 5.4 5.2 7.1 7.0 8.4 6.0 6.6 5.0 5.8 5.5 5.7 6.1
nan nan nan nan nan nan nan nan nan nan 6.3 nan nan nan nan nan 4.3 nan nan nan 5.0 6.2 nan 6.8 5.3 5.2 4.1 4.9 6.7 6.6 5.0 4.4 4.9 6.4 8.3 6.4 8.7 6.9 8.2 7.9 6.8 5.3 6.3 6.3 6.1
nan nan nan nan nan nan nan nan nan nan 3.3 nan nan nan nan 5.0 nan nan nan 5.0 5.3 5.5 6.9 10.0 6.9 7.0 7.1 6.4 5.6 5.0 5.0 4.6 3.9 6.0 6.4 6.6 6.9 10.2 8.0 9.5 8.2 6.6 4.9 6.0 5.9
nan nan nan nan nan nan nan nan nan 3.6 2.9 2.9 nan nan nan nan nan nan nan nan 3.3 4.8 4.8 7.0 4.8 5.9 8.4 5.6 5.5 6.1 4.7 4.3 5.2 5.8 8.5 8.1 6.9 8.1 8.3 9.5 6.9 6.2 6.7 5.6 5.2
nan nan nan nan nan nan nan nan 2.5 5.6 nan nan 2.3 nan nan nan nan 4.2 4.8 6.1 10.0 11.7 9.2 6.3 6.2 5.2 6.1 7.0 5.9 7.1 7.1 8.6 8.7 8.3 9.7 8.4 6.2 8.9 7.9 6.5 6.9 6.4 5.8 3.7 5.3
nan nan nan nan nan nan nan nan 4.0 7.0 nan nan nan nan nan nan 0.0 5.0 4.9 6.6 5.2 7.0 9.8 9.5 7.9 8.1 5.7 6.9 10.0 9.1 8.3 9.1 11.2 9.6 8.0 6.5 8.9 6.7 6.6 5.6 4.6 5.1 5.4 5.8 4.4
nan nan nan nan nan nan nan 2.6 8.4 6.7 5.5 5.5 nan 7.5 nan nan nan nan 7.0 6.3 6.3 6.8 11.2 11.2 8.8 5.7 5.4 5.7 5.8 7.5 8.8 7.9 9.0 7.9 7.8 9.3 9.5 6.9 6.1 5.9 4.6 4.3 5.6 6.4 5.4
nan nan nan nan nan nan nan nan 5.7 5.0 nan nan 7.2 6.2 10.0 5.0 9.0 nan 10.0 5.0 5.0 4.5 3.3 7.8 11.3 6.6 5.9 5.3 5.0 7.4 7.0 9.1 8.1 11.6 12.7 10.4 11.4 7.5 8.0 7.3 5.9 6.0 6.1 4.9 5.4
nan nan nan nan nan nan 5.9 5.5 5.0 nan nan 5.8 6.5 6.7 7.5 7.8 8.0 6.3 6.7 6.0 4.3 4.0 4.3 6.4 8.4 10.0 5.8 10.3 10.7 7.9 8.4 8.3 8.8 9.4 11.2 11.9 9.8 6.9 7.7 7.3 7.2 6.6 5.6 6.0 5.0
nan nan nan nan nan nan 5.8 4.4 nan nan nan nan nan 5.5 6.0 5.7 6.6 8.1 6.8 5.5 nan 3.3 6.7 5.0 8.2 8.7 10.3 6.4 5.7 8.0 9.9 8.6 10.6 12.1 9.1 9.4 11.6 7.2 6.8 6.9 6.9 6.9 6.1 5.1 4.8
nan nan nan nan 6.3 5.8 nan nan nan nan nan nan 4.6 4.5 4.0 6.1 8.1 8.1 5.9 5.2 4.4 4.6 7.0 6.9 8.0 9.4 9.6 7.5 5.5 8.8 8.9 9.4 9.1 9.0 11.7 11.9 12.0 7.6 7.5 7.7 7.4 7.6 6.9 6.1 5.3
nan 4.1 nan nan nan 5.0 5.4 nan 5.0 nan 3.7 3.6 4.2 4.0 4.7 5.7 5.5 8.1 6.5 5.7 nan 3.8 nan nan 7.6 9.4 11.0 12.9 9.3 11.4 10.6 9.7 9.8 10.4 12.2 12.3 12.4 9.7 8.8 8.6 7.7 7.4 7.2 6.8 6.6
3.0 5.2 5.1 6.3 nan nan 5.7 5.4 4.8 7.0 5.0 5.0 4.1 5.2 8.6 9.3 7.9 7.8 6.3 5.3 4.5 nan 4.0 5.9 10.6 5.0 5.0 6.3 7.3 7.8 11.1 10.8 11.7 11.8 12.3 11.4 11.2 10.1 8.9 8.5 7.9 7.5 7.1 7.3 7.7
3.6 4.9 4.4 5.1 4.7 4.7 5.6 6.6 5.0 5.8 5.3 6.0 7.1 4.7 6.7 9.1 9.3 9.0 8.5 7.7 7.4 7.0 5.8 6.2 10.3 8.0 9.2 5.5 5.0 10.8 8.0 7.9 9.3 11.1 10.4 10.5 11.2 9.2 7.9 7.3 7.8 7.7 7.7 8.1 8.1
nan 2.5 3.8 nan 4.8 5.9 6.3 6.7 6.1 5.4 4.7 5.3 5.6 6.2 8.2 8.1 6.4 5.2 5.0 5.0 5.6 9.4 9.3 9.1 9.7 10.9 13.1 8.4 8.4 12.2 13.3 11.6 11.2 11.5 11.4 11.8 10.6 8.8 8.5 8.2 8.2 7.8 7.9 7.9 8.0